Regional Weather Roundup
Issued by NWS

Home | Current Version | Previous Version | Text Only | Print | Product List | Glossary On
Versions: 1 2 3 4 5 6 7 8 9 10 11 12 13 14 15 16 17 18 19 20 21 22 23 24 25 26 27 28 29 30 31 32 33 34 35 36 37 38 39 40 41 42 43 44 45 46 47 48 49 50
000
ASUS46 KSEW 042010
RWRWA

WASHINGTON REGIONAL WEATHER ROUNDUP
NATIONAL WEATHER SERVICE SEATTLE WA
100 PM PDT TUE AUG 04 2015

NOTE:"FAIR" INDICATES FEW OR NO CLOUDS BELOW 12,000 FEET WITH NO
SIGNIFICANT WEATHER AND/OR OBSTRUCTIONS TO VISIBILITY.

WAZ505-507>509-042100-
SEATTLE, TACOMA, EVERETT, AND VICINITY

CITY           SKY/WX    TMP DP  RH WIND       PRES   REMARKS
EVERETT        MOSUNNY   65  54  67 SW13      30.02S
BOEING FIELD   MOSUNNY   73  54  51 S10       30.00S
RENTON         SUNNY     73  55  53 VRB5      29.99F
SEATAC AIRPORT MOSUNNY   71  54  54 SW12      30.02S
JBLM-MCCHORD   SUNNY     74  52  46 NW8       29.99F
PUYALLUP       FAIR      75  52  43 W6G12     30.01F
BREMERTON      MOSUNNY   72  55  56 SW9       30.03S
JBLM-FT LEWIS  SUNNY     76  49  38 S13       29.99F
TACOMA NARROWS SUNNY     71  52  50 NW8       30.01F
$$

WAZ001-503-506-510-514-515-042100-
NORTH INTERIOR

CITY           SKY/WX    TMP DP  RH WIND       PRES   REMARKS
BELLINGHAM     SUNNY     70  55  59 S10G17    29.99S
FRIDAY HARBOR  SUNNY     68  55  63 E6        30.01S
EASTSOUND      SUNNY     64  55  72 N6        29.98S
PORT ANGELES   MOSUNNY   65  52  62 N6        30.01R
PORT TOWNSEND  FAIR      68  57  68 SW7       29.99S
NAS WHIDBEY    MOSUNNY   63  54  72 NW8       30.04S
ARLINGTON      MOSUNNY   72  54  53 SW6       30.01S
BURLINGTON     MOSUNNY   73  55  53 S10       29.99S
$$

WAZ020-022-039-040-504-511-512-042100-
SOUTHWEST INTERIOR

CITY           SKY/WX    TMP DP  RH WIND       PRES   REMARKS
SHELTON        SUNNY     72  51  47 SW10G21   29.98F
OLYMPIA        SUNNY     75  49  39 SW7       30.00F
CHEHALIS       FAIR      75  52  43 S13       30.01F HAZE
KELSO          SUNNY     73  52  46 NW7       30.05F
VANCOUVER      SUNNY     74  49  41 W12G17    30.01F
SCAPPOOSE, OR  SUNNY     77  51  40 E9        30.00F
PORTLAND, OR   MOSUNNY   75  50  41 VRB7      30.01F
$$

WAZ021-516-517-042100-
WASHINGTON COAST

CITY           SKY/WX    TMP DP  RH WIND       PRES   REMARKS
FORKS          PTSUNNY   65  54  67 W9        30.04S
HOQUIAM        MOSUNNY   67  54  63 SW21      30.04S
ASTORIA, OR    MOSUNNY   69  54  58 NW16      30.07R
$$

WAZ019-023-024-040-518-519-042100-
CASCADE MOUNTAINS AND COLUMBIA GORGE

CITY           SKY/WX    TMP DP  RH WIND       PRES   REMARKS
TROUTDALE, OR  SUNNY     75  51  43 VRB6      30.00F
THE DALLES, OR SUNNY     86  34  15 NW21G31   29.88F
$$

WAZ026-027-041>044-520-521-042100-
EAST SLOPES

CITY           SKY/WX    TMP DP  RH WIND       PRES   REMARKS
OMAK           CLOUDY    86  41  20 VRB6      29.83F
WENATCHEE      SUNNY     86  44  23 CALM      29.83F
ELLENSBURG     SUNNY     86  41  20 NW23G31   29.88F
YAKIMA         SUNNY     88  45  22 E5        29.86F
$$

WAZ028-034-035-042100-
COLUMBIA BASIN

CITY           SKY/WX    TMP DP  RH WIND       PRES   REMARKS
EPHRATA        SUNNY     86  47  25 SW10      29.85R
MOSES LAKE     SUNNY     86  49  27 S10       29.85F
PASCO          SUNNY     87  50  27 W8        29.84F
HERMISTON, OR  SUNNY     90  41  18 W15G23    29.85F
$$

WAZ036>038-042100-
NORTHEAST WASHINGTON

CITY           SKY/WX    TMP DP  RH WIND       PRES   REMARKS
SPOKANE GEIGER MOSUNNY   81  44  27 S13G24    29.92S
SPOKANE FELTS  SUNNY     85  45  24 S12G21    29.91S
FAIRCHILD AFB  SUNNY     82  44  26 SW9G20    29.92S
COEURDALENE,ID MOSUNNY   82  46  28 S9        29.91F
DEER PARK      SUNNY     83  45  26 S16       29.90F
$$

WAZ029>033-042100-
SOUTHEAST WASHINGTON

CITY           SKY/WX    TMP DP  RH WIND       PRES   REMARKS
PULLMAN        MOSUNNY   81  40  23 W12       29.97F
LEWISTON, ID   PTSUNNY   89  42  19 NW5       29.88F
WALLA WALLA    SUNNY     88  43  20 W13G18    29.88F
PENDLETON, OR  SUNNY     88  39  17 W16       29.89F
$$


USA.gov is the U.S. government's official web portal to all federal, state and local government web resources and services.